User: anonymous   Login
Location: Betra
(48.4113°N, 8.6634°E)
Time: 22:57:28
(UTC+00:00)
Language:

Cosmos 1892 - Orbit

View from above orbital plane
View from above orbital plane
View from above satellite
View from above satellite

Ground track
Ground track

The orbit data is extracted from the following two-line orbital elements,

1 18421U 87088A   24204.47692130  .00018272  00000-0  52289-3 0  9990
2 18421  82.4892 221.6884 0009306 217.6304 142.4289 15.35782158 12089
Epoch (UTC): 22 July 2024 11:26:46
Eccentricity: 0.0009306
inclination: 82.4892°
perigee height: 452 km
apogee height: 465 km
right ascension of ascending node: 221.6884°
argument of perigee: 217.6304°
revolutions per day: 15.35782158
mean anomaly at epoch: 142.4289°
orbit number at epoch: 1208

The dashed part of the orbit path shows where the satellite is in the earth's shadow,  

DLR